Thedford, NE

12:00 AM CDT on August 26, 2016 (GMT -0500)
Thedford

Weather History for KTIF - March, 2014

Change the Weather History Date:

Wednesday, March 26, 2014

  Actual Average (KLBF) Record (KLBF)
Temperature  
Mean Temperature 52 °F 41 °F  
Max Temperature 72 °F 56 °F 86 °F (2012)
Min Temperature 31 °F 27 °F -5 °F (1965)
Degree Days  
Heating Degree Days 14 24  
Month to date heating degree days 721  
Since 1 July heating degree days 5749  
Cooling Degree Days 0 0  
Month to date cooling degree days 0  
Year to date cooling degree days 0  
Growing Degree Days 2 (Base 50)    
Moisture  
Dew Point 26 °F    
Average Humidity 48    
Maximum Humidity 71    
Minimum Humidity 15    
Precipitation  
Precipitation 0.05 in 0.04 in 1.10 in (1949)
Month to date precipitation 0.82  
Year to date precipitation 1.66  
Snow  
Snow 0.00 in 0.20 in 5.00 in (1944)
Month to date snowfall 3.7  
Since 1 July snowfall 24.6  
Snow Depth -    
Sea Level Pressure  
Sea Level Pressure 29.54 in    
Wind  
Wind Speed 15 mph (South)    
Max Wind Speed 21 mph    
Max Gust Speed 30 mph    
Visibility 10 miles    
Events Rain , Thunderstorm    
T = Trace of Precipitation, MM = Missing Value Source: NWS Daily Summary

Daily Weather History Graph

Daily Weather History Graph

Search for Another Location

Airport or City:

Trip Planner

Search our weather history database for the weather conditions in past years. The results will help you decide how hot, cold, wet, or windy it might be!

Date:

Astronomy

Mar. 26, 2014 Rise Set
Actual Time 7:35 AM CDT 8:01 PM CDT
Civil Twilight 7:07 AM CDT 8:29 PM CDT
Nautical Twilight 6:34 AM CDT 9:02 PM CDT
Astronomical Twilight 6:00 AM CDT 9:36 PM CDT
Moon 4:49 AM CDT 3:38 PM CDT
Length of Visible Light 13h 22m
Length of Day
12h 26m
Waning Crescent, 21% of the Moon is Illuminated
Mar 26
Waning Crescent
Mar 30
New
Apr 7
First Quarter
Apr 15
Full
Apr 22
Last Quarter

Hourly Weather History & Observations

Time (CDT) Temp. Windchill Dew Point Humidity Pressure Visibility Wind Dir Wind Speed Gust Speed Precip Events Conditions
12:15 AM 35.8 °F 25.1 °F 19.2 °F 51% 29.87 in 10.0 mi South 19.6 mph 24.2 mph N/A   Clear
12:35 AM 35.8 °F 25.1 °F 19.4 °F 51% 29.87 in 10.0 mi South 19.6 mph 26.5 mph N/A   Clear
12:55 AM 35.6 °F 25.2 °F 19.4 °F 52% 29.85 in 10.0 mi South 18.4 mph 29.9 mph N/A   Clear
1:15 AM 35.6 °F 24.5 °F 19.6 °F 52% 29.84 in 10.0 mi South 20.7 mph 29.9 mph N/A   Clear
1:35 AM 35.1 °F 23.8 °F 20.1 °F 55% 29.83 in 10.0 mi South 20.7 mph 26.5 mph N/A   Clear
1:55 AM 34.7 °F 23.7 °F 20.3 °F 56% 29.81 in 10.0 mi South 19.6 mph 25.3 mph N/A   Clear
2:15 AM 34.0 °F 23.4 °F 20.3 °F 57% 29.80 in 10.0 mi South 17.3 mph 23.0 mph N/A   Clear
2:35 AM 33.8 °F 23.9 °F 20.3 °F 58% 29.80 in 10.0 mi South 15.0 mph 21.9 mph N/A   Clear
2:55 AM 33.8 °F 25.8 °F 20.5 °F 58% 29.78 in 10.0 mi South 10.4 mph - N/A   Clear
3:15 AM 33.8 °F 24.3 °F 20.7 °F 59% 29.77 in 10.0 mi South 13.8 mph 21.9 mph N/A   Clear
3:35 AM 33.8 °F 23.9 °F 20.8 °F 59% 29.75 in 10.0 mi South 15.0 mph 18.4 mph N/A   Clear
3:55 AM 33.4 °F 23.9 °F 20.8 °F 60% 29.73 in 10.0 mi South 13.8 mph - N/A   Clear
4:15 AM 33.1 °F 23.4 °F 21.0 °F 61% 29.72 in 10.0 mi South 13.8 mph - N/A   Clear
4:35 AM 32.9 °F 24.1 °F 21.2 °F 62% 29.71 in 10.0 mi South 11.5 mph - N/A   Clear
4:55 AM 32.4 °F 23.0 °F 21.6 °F 64% 29.69 in 10.0 mi South 12.7 mph - N/A   Clear
5:15 AM 32.2 °F 23.2 °F 21.7 °F 65% 29.69 in 10.0 mi South 11.5 mph - N/A   Clear
5:35 AM 32.0 °F 23.0 °F 22.1 °F 67% 29.68 in 10.0 mi South 11.5 mph - N/A   Clear
5:55 AM 32.0 °F 22.5 °F 22.1 °F 67% 29.66 in 10.0 mi South 12.7 mph - N/A   Clear
6:15 AM 31.8 °F 23.9 °F 22.1 °F 67% 29.66 in 10.0 mi South 9.2 mph - N/A   Clear
6:35 AM 31.3 °F 23.3 °F 22.5 °F 70% 29.66 in 10.0 mi South 9.2 mph - N/A   Clear
6:55 AM 31.6 °F 23.7 °F 22.6 °F 69% 29.65 in 10.0 mi South 9.2 mph - N/A   Clear
7:15 AM 31.5 °F 23.5 °F 22.6 °F 70% 29.64 in 10.0 mi South 9.2 mph - N/A   Clear
7:35 AM 31.6 °F 26.0 °F 22.6 °F 69% 29.64 in 10.0 mi South 5.8 mph - N/A   Clear
7:55 AM 31.5 °F 22.3 °F 22.6 °F 70% 29.63 in 10.0 mi South 11.5 mph - N/A   Clear
8:15 AM 32.0 °F 23.0 °F 23.0 °F 69% 29.62 in 10.0 mi South 11.5 mph - N/A   Clear
8:35 AM 32.2 °F 23.8 °F 23.0 °F 69% 29.62 in 10.0 mi South 10.4 mph - N/A   Clear
8:55 AM 33.6 °F 24.6 °F 23.2 °F 66% 29.61 in 10.0 mi South 12.7 mph 16.1 mph N/A   Clear
9:15 AM 35.4 °F 27.8 °F 23.5 °F 62% 29.61 in 10.0 mi South 10.4 mph - N/A   Clear
9:35 AM 36.5 °F 29.2 °F 23.2 °F 59% 29.59 in 10.0 mi South 10.4 mph - N/A   Clear
9:55 AM 39.2 °F 30.8 °F 23.5 °F 53% 29.58 in 10.0 mi South 15.0 mph - N/A   Clear
10:15 AM 40.3 °F 31.6 °F 23.5 °F 51% 29.57 in 10.0 mi South 17.3 mph - N/A   Clear
10:35 AM 43.5 °F 35.5 °F 24.3 °F 47% 29.55 in 10.0 mi South 18.4 mph 24.2 mph N/A   Clear
10:55 AM 45.5 °F 38.9 °F 24.8 °F 44% 29.55 in 10.0 mi South 15.0 mph 19.6 mph N/A   Clear
11:15 AM 47.3 °F - 25.3 °F 42% 29.53 in 10.0 mi South 15.0 mph - N/A   Clear
11:35 AM 49.6 °F - 26.1 °F 40% 29.52 in 10.0 mi South 13.8 mph 19.6 mph N/A   Clear
11:55 AM 51.3 °F - 26.4 °F 38% 29.52 in 10.0 mi SW 12.7 mph - N/A   Clear
12:15 PM 51.8 °F - 26.4 °F 37% 29.51 in 10.0 mi South 15.0 mph - N/A   Clear
12:35 PM 53.8 °F - 25.9 °F 34% 29.50 in 10.0 mi SSW 13.8 mph 18.4 mph N/A   Clear
12:55 PM 56.3 °F - 26.2 °F 32% 29.49 in 10.0 mi South 12.7 mph - N/A   Clear
1:15 PM 58.1 °F - 26.4 °F 30% 29.48 in 10.0 mi South 13.8 mph - N/A   Clear
1:35 PM 59.9 °F - 26.6 °F 28% 29.47 in 10.0 mi South 17.3 mph - N/A   Clear
1:55 PM 61.0 °F - 27.3 °F 28% 29.47 in 10.0 mi South 17.3 mph 21.9 mph N/A   Clear
2:15 PM 61.9 °F - 27.5 °F 27% 29.45 in 10.0 mi South 18.4 mph 26.5 mph N/A   Clear
2:35 PM 63.3 °F - 27.9 °F 26% 29.43 in 10.0 mi South 17.3 mph 20.7 mph N/A   Clear
2:55 PM 65.3 °F - 28.0 °F 25% 29.42 in 10.0 mi South 12.7 mph 21.9 mph N/A   Clear
3:15 PM 66.0 °F - 27.5 °F 23% 29.41 in 10.0 mi South 15.0 mph 23.0 mph N/A   Clear
3:35 PM 67.1 °F - 26.6 °F 22% 29.39 in 10.0 mi SSW 15.0 mph 25.3 mph N/A   Clear
3:55 PM 68.2 °F - 27.0 °F 21% 29.38 in 10.0 mi SSW 17.3 mph 23.0 mph N/A   Clear
4:35 PM 71.1 °F - 26.4 °F 19% 29.35 in 10.0 mi South 16.1 mph 19.6 mph N/A   Clear
4:55 PM 71.6 °F - 26.4 °F 19% 29.34 in 10.0 mi South 13.8 mph 19.6 mph N/A   Clear
5:15 PM 72.5 °F - 25.7 °F 17% 29.33 in 10.0 mi South 13.8 mph 20.7 mph N/A   Clear
6:15 PM 71.6 °F - 21.9 °F 15% 29.31 in 10.0 mi SSW 10.4 mph - N/A   Clear
6:55 PM 70.7 °F - 23.4 °F 17% 29.31 in 10.0 mi SW 5.8 mph - N/A   Clear
7:15 PM 68.4 °F - 23.9 °F 19% 29.31 in 10.0 mi WSW 5.8 mph - N/A   Clear
7:35 PM 65.7 °F - 25.2 °F 22% 29.30 in 10.0 mi WSW 3.5 mph - N/A   Clear
7:55 PM 66.2 °F - 32.7 °F 29% 29.31 in 10.0 mi SSE 16.1 mph 21.9 mph N/A   Clear
8:35 PM 63.5 °F - 36.9 °F 37% 29.32 in 10.0 mi South 10.4 mph - N/A   Clear
8:55 PM 62.6 °F - 37.8 °F 40% 29.32 in 10.0 mi South 12.7 mph - N/A   Clear
9:15 PM 60.8 °F - 38.8 °F 44% 29.33 in 10.0 mi South 16.1 mph - N/A   Scattered Clouds
9:35 PM 59.5 °F - 39.2 °F 47% 29.34 in 10.0 mi South 16.1 mph - N/A   Mostly Cloudy
9:55 PM 58.3 °F - 39.4 °F 49% 29.35 in 10.0 mi South 15.0 mph 21.9 mph N/A   Mostly Cloudy
10:15 PM 56.8 °F - 40.1 °F 54% 29.33 in 10.0 mi South 13.8 mph - N/A Rain Light Rain
10:35 PM 55.4 °F - 39.7 °F 56% 29.34 in 10.0 mi South 18.4 mph 23.0 mph N/A   Scattered Clouds
10:55 PM 53.2 °F - 39.6 °F 60% 29.37 in 10.0 mi SSE 11.5 mph - N/A Thunderstorm Mostly Cloudy
11:15 PM 52.0 °F - 40.5 °F 65% 29.39 in 10.0 mi SW 10.4 mph - N/A Rain , Thunderstorm Light Thunderstorms and Rain
11:35 PM 51.8 °F - 41.0 °F 67% 29.41 in 10.0 mi West 5.8 mph - N/A Rain , Thunderstorm Light Thunderstorms and Rain
11:55 PM 49.1 °F - 40.1 °F 71% 29.41 in 7.0 mi North 8.1 mph - 0.05 in Rain , Thunderstorm Thunderstorms and Rain